Weather History for Atka, AK

Change the Weather History Date:

Monday, January 20, 2014

  Actual Average (PADK) Record (PADK)
Temperature  
Mean Temperature 28 °F -  
Max Temperature 33 °F 34 °F 45 °F (1963)
Min Temperature 24 °F 24 °F -7 °F (1999)
Degree Days  
Heating Degree Days 36    
Moisture  
Dew Point 19 °F    
Average Humidity 64    
Maximum Humidity 86    
Minimum Humidity 52    
Precipitation  
Precipitation 0.00 in - - ()
Sea Level Pressure  
Sea Level Pressure 29.34 in    
Wind  
Wind Speed 12 mph (WNW)    
Max Wind Speed 22 mph    
Max Gust Speed 28 mph    
Visibility 10 miles    
Events      
Averages and records for this station are not official NWS values.
T = Trace of Precipitation, MM = Missing Value Source: NWS Daily Summary

Daily Weather History Graph

Daily Weather History Graph

Search for Another Location

Airport:

Trip Planner

Search our weather history database for the weather conditions in past years. The results will help you decide how hot, cold, wet, or windy it might be!

Date:

Astronomy

Jan. 20, 2014 Rise Set
Actual Time 9:33 AM HAST 6:02 PM HAST
Civil Twilight 8:54 AM HAST 6:41 PM HAST
Nautical Twilight 8:12 AM HAST 7:23 PM HAST
Astronomical Twilight 7:32 AM HAST 8:03 PM HAST
Moon 11:34 PM HAST (1/20) 11:01 AM HAST (1/20)
Length of Visible Light 9h 46m
Length of Day
8h 29m
Waning Gibbous, 81% of the Moon is Illuminated
Jan 20
Waning Gibbous
Jan 23
Last Quarter
Jan 30
New
Feb 6
First Quarter
Feb 14
Full

Hourly Weather History & Observations

Time (HAST) Temp. Windchill Dew Point Humidity Pressure Visibility Wind Dir Wind Speed Gust Speed Precip Events Conditions
12:16 AM 28.4 °F 17.5 °F 21.2 °F 74% 29.37 in 10.0 mi WNW 13.8 mph 17.3 mph N/A   Scattered Clouds
12:36 AM 28.4 °F 16.2 °F 19.4 °F 69% 29.36 in 10.0 mi WNW 17.3 mph - N/A   Scattered Clouds
12:56 AM 28.4 °F 16.2 °F 19.4 °F 69% 29.35 in 10.0 mi WNW 17.3 mph 24.2 mph N/A   Mostly Cloudy
1:16 AM 30.2 °F 17.1 °F 19.4 °F 64% 29.35 in 10.0 mi WNW 21.9 mph 27.6 mph N/A   Mostly Cloudy
1:36 AM 28.4 °F 17.0 °F 19.4 °F 69% 29.35 in 10.0 mi NW 15.0 mph 19.6 mph N/A   Partly Cloudy
1:56 AM 28.4 °F 17.5 °F 21.2 °F 74% 29.35 in 10.0 mi WNW 13.8 mph 20.7 mph N/A   Mostly Cloudy
2:16 AM 28.4 °F 18.5 °F 17.6 °F 64% 29.34 in 10.0 mi WNW 11.5 mph - N/A   Scattered Clouds
2:36 AM 30.2 °F 20.2 °F 17.6 °F 60% 29.34 in 10.0 mi NW 12.7 mph 18.4 mph N/A   Overcast
2:56 AM 28.4 °F 17.5 °F 15.8 °F 59% 29.34 in 10.0 mi WNW 13.8 mph 17.3 mph N/A   Mostly Cloudy
3:16 AM 28.4 °F 18.0 °F 19.4 °F 69% 29.35 in 8.0 mi WNW 12.7 mph - N/A   Overcast
3:36 AM 28.4 °F 16.6 °F 19.4 °F 69% 29.34 in 10.0 mi WNW 16.1 mph 20.7 mph N/A   Mostly Cloudy
3:56 AM 28.4 °F 18.0 °F 15.8 °F 59% 29.34 in 10.0 mi WNW 12.7 mph - N/A   Scattered Clouds
4:16 AM 30.2 °F 18.1 °F 21.2 °F 69% 29.34 in 10.0 mi WNW 18.4 mph 26.5 mph N/A   Mostly Cloudy
4:36 AM 28.4 °F 18.0 °F 19.4 °F 69% 29.34 in 6.0 mi WNW 12.7 mph 24.2 mph N/A   Overcast
4:56 AM 30.2 °F 19.3 °F 19.4 °F 64% 29.34 in 10.0 mi WNW 15.0 mph 19.6 mph N/A   Mostly Cloudy
5:16 AM 30.2 °F 19.3 °F 15.8 °F 55% 29.33 in 10.0 mi WNW 15.0 mph 23.0 mph N/A   Partly Cloudy
5:36 AM 28.4 °F 17.0 °F 15.8 °F 59% 29.33 in 10.0 mi WNW 15.0 mph - N/A   Clear
5:56 AM 28.4 °F 17.5 °F 15.8 °F 59% 29.33 in 10.0 mi WNW 13.8 mph - N/A   Scattered Clouds
6:16 AM 30.2 °F 18.5 °F 15.8 °F 55% 29.33 in 10.0 mi WNW 17.3 mph 20.7 mph N/A   Overcast
6:36 AM 30.2 °F 19.8 °F 15.8 °F 55% 29.32 in 10.0 mi WNW 13.8 mph - N/A   Overcast
6:56 AM 30.2 °F 19.3 °F 19.4 °F 64% 29.33 in 10.0 mi NW 15.0 mph 18.4 mph N/A   Mostly Cloudy
7:16 AM 30.2 °F 18.5 °F 19.4 °F 64% 29.32 in 10.0 mi WNW 17.3 mph 21.9 mph N/A   Overcast
7:36 AM 30.2 °F 20.8 °F 17.6 °F 60% 29.32 in 10.0 mi WNW 11.5 mph - N/A   Mostly Cloudy
7:56 AM 30.2 °F 19.3 °F 17.6 °F 60% 29.32 in 10.0 mi West 15.0 mph 23.0 mph N/A   Mostly Cloudy
8:16 AM 30.2 °F 19.3 °F 15.8 °F 55% 29.32 in 10.0 mi WNW 15.0 mph 21.9 mph N/A   Overcast
8:36 AM 30.2 °F 19.8 °F 15.8 °F 55% 29.32 in 10.0 mi WNW 13.8 mph 19.6 mph N/A   Mostly Cloudy
8:56 AM 30.2 °F 19.8 °F 15.8 °F 55% 29.32 in 10.0 mi WNW 13.8 mph 20.7 mph N/A   Mostly Cloudy
9:16 AM 30.2 °F 19.8 °F 17.6 °F 60% 29.32 in 10.0 mi WNW 13.8 mph - N/A   Mostly Cloudy
9:36 AM 30.2 °F 20.2 °F 15.8 °F 55% 29.33 in 10.0 mi WNW 12.7 mph - N/A   Clear
9:56 AM 30.2 °F 19.8 °F 17.6 °F 60% 29.32 in 10.0 mi WNW 13.8 mph - N/A   Scattered Clouds
10:16 AM 30.2 °F 20.2 °F 17.6 °F 60% 29.33 in 10.0 mi WNW 12.7 mph - N/A   Mostly Cloudy
10:36 AM 30.2 °F 19.8 °F 15.8 °F 55% 29.33 in 10.0 mi WNW 13.8 mph - N/A   Scattered Clouds
10:56 AM 30.2 °F 20.8 °F 15.8 °F 55% 29.33 in 10.0 mi WNW 11.5 mph - N/A   Clear
11:16 AM 30.2 °F 20.2 °F 15.8 °F 55% 29.34 in 10.0 mi WNW 12.7 mph - N/A   Partly Cloudy
11:36 AM 32.0 °F 22.5 °F 17.6 °F 55% 29.33 in 10.0 mi NW 12.7 mph - N/A   Mostly Cloudy
11:56 AM 33.8 °F 24.3 °F 17.6 °F 52% 29.34 in 10.0 mi WNW 13.8 mph - N/A   Overcast
12:16 PM - - - N/A% - - North - - N/A   Unknown
12:36 PM 33.8 °F 26.4 °F 19.4 °F 56% 29.33 in 10.0 mi WNW 9.2 mph - N/A   Mostly Cloudy
12:56 PM 33.8 °F 25.8 °F 21.2 °F 60% 29.33 in 10.0 mi WNW 10.4 mph - N/A   Unknown
1:16 PM 32.0 °F 24.2 °F 19.4 °F 60% 29.33 in 10.0 mi WNW 9.2 mph - N/A   Partly Cloudy
1:36 PM 32.0 °F 24.2 °F 17.6 °F 55% 29.33 in 10.0 mi West 9.2 mph - N/A   Scattered Clouds
1:56 PM 33.8 °F 26.4 °F 19.4 °F 56% 29.32 in 10.0 mi WNW 9.2 mph - N/A   Mostly Cloudy
2:16 PM 33.8 °F 24.8 °F 19.4 °F 56% 29.32 in 10.0 mi West 12.7 mph - N/A   Overcast
2:36 PM 33.8 °F 25.8 °F 19.4 °F 56% 29.32 in 10.0 mi West 10.4 mph - N/A   Mostly Cloudy
2:56 PM 33.8 °F 26.4 °F 19.4 °F 56% 29.32 in 10.0 mi West 9.2 mph - N/A   Mostly Cloudy
3:16 PM 33.8 °F 26.4 °F 19.4 °F 56% 29.32 in 10.0 mi WNW 9.2 mph - N/A   Overcast
3:36 PM 33.8 °F 26.4 °F 19.4 °F 56% 29.31 in 10.0 mi West 9.2 mph - N/A   Overcast
3:56 PM 32.0 °F 24.2 °F 19.4 °F 60% 29.31 in 10.0 mi WNW 9.2 mph - N/A   Mostly Cloudy
4:16 PM 30.2 °F 22.6 °F 19.4 °F 64% 29.32 in 10.0 mi West 8.1 mph - N/A   Partly Cloudy
4:36 PM 30.2 °F 22.6 °F 19.4 °F 64% 29.32 in 10.0 mi West 8.1 mph - N/A   Partly Cloudy
4:56 PM 30.2 °F 21.3 °F 19.4 °F 64% 29.32 in 10.0 mi West 10.4 mph - N/A   Partly Cloudy
5:16 PM 30.2 °F 23.4 °F 19.4 °F 64% 29.33 in 10.0 mi WSW 6.9 mph - N/A   Scattered Clouds
5:36 PM 28.4 °F 20.4 °F 19.4 °F 69% 29.33 in 10.0 mi WSW 8.1 mph - N/A   Scattered Clouds
5:56 PM 28.4 °F 20.4 °F 19.4 °F 69% 29.34 in 10.0 mi WSW 8.1 mph - N/A   Mostly Cloudy
6:16 PM 30.2 °F 22.6 °F 21.2 °F 69% 29.34 in 10.0 mi WSW 8.1 mph - N/A   Overcast
6:36 PM 32.0 °F 24.8 °F 19.4 °F 60% 29.34 in 10.0 mi SW 8.1 mph - N/A   Overcast
6:56 PM 30.2 °F 23.4 °F 21.2 °F 69% 29.34 in 10.0 mi WSW 6.9 mph - N/A   Overcast
7:16 PM 30.2 °F 23.4 °F 21.2 °F 69% 29.34 in 10.0 mi West 6.9 mph - N/A   Overcast
7:36 PM 30.2 °F - 21.2 °F 69% 29.34 in 10.0 mi Calm Calm - N/A   Overcast
7:56 PM 28.4 °F - 19.4 °F 69% 29.35 in 10.0 mi Calm Calm - N/A   Overcast
8:16 PM 30.2 °F 25.4 °F 21.2 °F 69% 29.35 in 7.0 mi West 4.6 mph - N/A   Overcast
8:36 PM 30.2 °F 25.4 °F 24.8 °F 80% 29.35 in 5.0 mi WNW 4.6 mph - N/A   Mostly Cloudy
8:56 PM 28.4 °F 22.2 °F 21.2 °F 74% 29.35 in 10.0 mi NNW 5.8 mph - N/A   Mostly Cloudy
9:16 PM 26.6 °F - 23.0 °F 86% 29.35 in 10.0 mi Calm Calm - N/A   Scattered Clouds
9:36 PM 26.6 °F - 21.2 °F 80% 29.35 in 10.0 mi Calm Calm - N/A   Mostly Cloudy
9:56 PM 24.8 °F - 19.4 °F 80% 29.35 in 10.0 mi Calm Calm - N/A   Mostly Cloudy
10:16 PM 24.8 °F - 21.2 °F 86% 29.35 in 10.0 mi Calm Calm - N/A   Scattered Clouds
10:36 PM 26.6 °F - 21.2 °F 80% 29.35 in 10.0 mi Calm Calm - N/A   Mostly Cloudy
10:56 PM 24.8 °F - 19.4 °F 80% 29.35 in 10.0 mi Calm Calm - N/A   Overcast
11:16 PM 26.6 °F - 19.4 °F 74% 29.36 in 10.0 mi Calm Calm - N/A   Scattered Clouds
11:36 PM 26.6 °F - 19.4 °F 74% 29.36 in 10.0 mi Calm Calm - N/A   Scattered Clouds
11:56 PM 26.6 °F 19.1 °F 19.4 °F 74% 29.36 in 10.0 mi West 6.9 mph - N/A   Mostly Cloudy